2006 UF17

Initial reported observation by Catalina Sky Survey on 2006-10-19.
(Discoverer will be defined when the object is numbered. See this note on how discoverers are determined.)

Orbit

Orbit type: Apollo
Potentially Hazardous Asteroid

Note: WebGL enabled browser required.

epoch2018-03-23.0
epoch JD2458200.5
perihelion date2018-05-13.19517
perihelion JD2458251.69517
argument of perihelion (°)235.71158
ascending node (°)47.69549
inclination (°)3.72829
eccentricity0.8112014
perihelion distance (AU)0.4676369
Tisserand w.r.t. Jupiter2.9
ΔV w.r.t. Earth (km/sec)9.0
semimajor axis (AU)2.4769093
mean anomaly (°)347.05602
mean daily motion (°/day)0.25283590
aphelion distance (AU)4.486
period (years)3.9
P-vector [x]0.23057475
P-vector [y]-0.87002802
P-vector [z]-0.43575970
Q-vector [x]0.97186549
Q-vector [y]0.22804249
Q-vector [z]0.05894140
absolute magnitude21.6
phase slope0.15
uncertainty1
referenceMPO 456558
observations used81
oppositions2
arc length (days)4171
first opposition used2006
last opposition used2018
residual rms (arc-secs)0.64
perturbers coarse indicatorM-v
perturbers precise indicator003Eh
first observation date used2006-10-19.0
last observation date used2018-03-21.0
computer nameMPCLINUX
JD of orbit computation2458293.651340
perihelion JD uncertainty (days)2.7822E-05
argument of perihelion uncertainty (°)6.3490E-05
ascending node uncertainty (°)5.8848E-05
inclination uncertainty (°)7.3709E-06
eccentricity uncertainty 3.3212E-08
perihelion distance uncertainty (AU)8.6658E-08
Minimum Orbit Intersection Distances (in AU)
for orbit epoch: 2458600.5, reference: MPO456558
Mercury0.01992
Venus0.00752
Earth0.02592
Mars0.0011
Jupiter0.74141
Saturn4.62956
Uranus14.2538
Neptune25.6121

Observations

92 total observations over interval: 2006 10 19.47561 – 2018 03 21.82967
These data are available for download (format description).

Date (UT) J2000 RA J2000 Dec Magn Location Ref
2006 10 19.47561 04 18 20.08 +14 51 01.8 19.5 V 703 – Catalina Sky Survey MPS 183209
2006 10 19.48554 04 18 12.31 +14 50 59.6 18.9 V 703 – Catalina Sky Survey MPS 183209
2006 10 19.49539 04 18 04.60 +14 50 58.8 18.7 V 703 – Catalina Sky Survey MPS 183209
2006 10 19.50534 04 17 56.86 +14 50 56.0 19.3 V 703 – Catalina Sky Survey MPS 183209
2006 10 20.35991 04 07 30.89 +14 48 01.6 19.1 V 703 – Catalina Sky Survey MPS 183209
2006 10 20.36632 04 07 26.65 +14 47 57.7 19.0 R 673 – Table Mountain Observatory, Wrightwood MPS 183209
2006 10 20.36800 04 07 25.36 +14 47 57.2   673 – Table Mountain Observatory, Wrightwood MPS 183209
2006 10 20.37188 04 07 22.62 +14 47 56.5   673 – Table Mountain Observatory, Wrightwood MPS 183209
2006 10 20.37706 04 07 18.50 +14 47 56.1   G96 – Mt. Lemmon Survey MPS 183209
2006 10 20.37971 04 07 16.60 +14 47 56.8   G96 – Mt. Lemmon Survey MPS 183209
2006 10 20.37981 04 07 15.94 +14 47 51.6 18.9 R 734 – Farpoint Observatory, Eskridge MPS 183209
2006 10 20.38112 04 07 14.96 +14 47 49.8 20.0 R 734 – Farpoint Observatory, Eskridge MPS 183209
2006 10 20.38220 04 07 14.16 +14 47 50.6 19.8 R 734 – Farpoint Observatory, Eskridge MPS 183209
2006 10 20.38236 04 07 14.69 +14 47 54.8 18.9 V G96 – Mt. Lemmon Survey MPS 183209
2006 10 20.38264 04 07 14.85 +14 47 54.0   673 – Table Mountain Observatory, Wrightwood MPS 183209
2006 10 20.38507 04 07 12.76 +14 47 54.3   G96 – Mt. Lemmon Survey MPS 183209
2006 10 20.38646 04 07 11.10 +14 47 48.7 19.3 R 734 – Farpoint Observatory, Eskridge MPS 183209
2006 10 20.38773 04 07 10.17 +14 47 48.0 19.5 R 734 – Farpoint Observatory, Eskridge MPS 183209
2006 10 20.38915 04 07 09.74 +14 47 52.6 19.1 V 703 – Catalina Sky Survey MPS 183209
2006 10 21.394075 03 55 50.825 +14 42 36.92 19.45 r 645 – Apache Point-Sloan Digital Sky Survey MPS 394234
2006 10 21.394904 03 55 50.247 +14 42 36.64 20.12 i 645 – Apache Point-Sloan Digital Sky Survey MPS 394234
2006 10 21.397392 03 55 48.614 +14 42 35.86 21.19 g 645 – Apache Point-Sloan Digital Sky Survey MPS 394234
2006 10 22.46144 03 44 52.36 +14 35 31.4 20.5 V 691 – Steward Observatory, Kitt Peak-Spacewatch MPS 184248
2006 10 24.16499 03 29 28.08 +14 22 08.4 19.0 R 649 – Powell Observatory, Louisburg MPS 184248
2006 10 24.16677 03 29 27.27 +14 22 07.6 19.3 R 649 – Powell Observatory, Louisburg MPS 184248
2006 10 24.16854 03 29 26.33 +14 22 07.4 19.2 R 649 – Powell Observatory, Louisburg MPS 184248
2006 10 24.17031 03 29 25.42 +14 22 06.8 19.0 R 649 – Powell Observatory, Louisburg MPS 184248
2006 10 24.17209 03 29 24.51 +14 22 05.3 19.0 R 649 – Powell Observatory, Louisburg MPS 184248
2006 10 25.95151 03 15 33.50 +14 06 56.6   246 – Klet Observatory-KLENOT MPS 185679
2006 10 25.95468 03 15 32.05 +14 06 55.9   246 – Klet Observatory-KLENOT MPS 185679
2006 10 25.95624 03 15 31.45 +14 06 55.6   246 – Klet Observatory-KLENOT MPS 185679
2006 10 25.95724 03 15 30.93 +14 06 55.7   246 – Klet Observatory-KLENOT MPS 185679
2006 10 25.95821 03 15 30.55 +14 06 54.0   246 – Klet Observatory-KLENOT MPS 185679
2006 10 26.91947 03 08 53.51 +13 58 36.1 19.9 V 151 – Eschenberg Observatory, Winterthur MPS 184248
2006 10 26.92100 03 08 52.92 +13 58 35.4 19.9 V 151 – Eschenberg Observatory, Winterthur MPS 184248
2006 10 26.92253 03 08 52.33 +13 58 34.5 20.0 V 151 – Eschenberg Observatory, Winterthur MPS 184248
2006 10 26.92409 03 08 51.64 +13 58 34.1 20.2 V 151 – Eschenberg Observatory, Winterthur MPS 184248
2006 10 26.92717 03 08 50.29 +13 58 32.6 20.1 V 151 – Eschenberg Observatory, Winterthur MPS 184248
2006 10 29.29168 02 54 40.65 +13 38 46.9   291 – LPL/Spacewatch II MPS 185679
2006 10 29.29565 02 54 39.40 +13 38 45.7   291 – LPL/Spacewatch II MPS 185679
2006 10 29.29963 02 54 38.12 +13 38 43.6   291 – LPL/Spacewatch II MPS 185679
2006 10 30.84035 02 46 49.16 +13 26 20.3 19.4 V A17 – Guidestar Observatory, Weinheim MPS 185679
2006 10 30.86568 02 46 41.84 +13 26 08.8 19.7 V A17 – Guidestar Observatory, Weinheim MPS 185679
2006 10 30.89157 02 46 34.29 +13 25 57.5 19.1 V A17 – Guidestar Observatory, Weinheim MPS 185679
2006 10 31.29392 02 44 40.88 +13 23 02.0 20.4 R 448 – Desert Moon Observatory, Las Cruces MPS 185679
2006 10 31.31402 02 44 35.16 +13 22 52.7 19.7 R 448 – Desert Moon Observatory, Las Cruces MPS 185679
2006 10 31.31685 02 44 34.47 +13 22 51.0 20.6 V 691 – Steward Observatory, Kitt Peak-Spacewatch MPS 185679
2006 10 31.33394 02 44 29.45 +13 22 43.5 20.6 R 448 – Desert Moon Observatory, Las Cruces MPS 185679
2006 10 31.33423 02 44 29.54 +13 22 43.5   691 – Steward Observatory, Kitt Peak-Spacewatch MPS 185679
2006 10 31.35180 02 44 24.52 +13 22 35.8 20.4 V 691 – Steward Observatory, Kitt Peak-Spacewatch MPS 185679
2006 11 10.27785 02 12 48.52 +12 25 36.8   291 – LPL/Spacewatch II MPS 186547
2006 11 10.28203 02 12 48.19 +12 25 36.4 21.0 V 291 – LPL/Spacewatch II MPS 186547
2006 11 10.28607 02 12 47.56 +12 25 34.1 21.7 V 291 – LPL/Spacewatch II MPS 186547
2006 11 10.29633 02 12 46.13 +12 25 31.0 21.8 V 291 – LPL/Spacewatch II MPS 186547
2006 11 10.30361 02 12 45.19 +12 25 29.9 22.0 V 291 – LPL/Spacewatch II MPS 186547
2006 11 10.30768 02 12 44.70 +12 25 28.8 21.7 V 291 – LPL/Spacewatch II MPS 186547
2006 11 14.15208 02 05 41.20 +12 12 28.2   291 – LPL/Spacewatch II MPS 187146
2006 11 14.15602 02 05 40.83 +12 12 27.4   291 – LPL/Spacewatch II MPS 187146
2018 02 12.51078 12 03 29.382 +08 25 02.12 21.9 w F51 – Pan-STARRS 1, Haleakala MPS 872652
2018 02 12.52329 12 03 29.244 +08 25 08.18 23.2 w F51 – Pan-STARRS 1, Haleakala MPS 872652
2018 02 12.53580 12 03 29.117 +08 25 14.91 23.1 w F51 – Pan-STARRS 1, Haleakala MPS 872652
2018 02 12.54836 12 03 29.020 +08 25 21.11 22.2 w F51 – Pan-STARRS 1, Haleakala MPS 872652
2018 03 07.33358 11 40 54.745 +16 04 18.36 20.6 w F51 – Pan-STARRS 1, Haleakala MPS 872652
2018 03 07.34524 11 40 52.868 +16 04 46.08 20.5 w F51 – Pan-STARRS 1, Haleakala MPS 872652
2018 03 07.35686 11 40 50.984 +16 05 13.60 20.4 w F51 – Pan-STARRS 1, Haleakala MPS 872652
2018 03 07.36852 11 40 49.088 +16 05 41.34 20.4 w F51 – Pan-STARRS 1, Haleakala MPS 872652
2018 03 07.486832 11 40 28.55 +16 10 12.7 20.0 G H01 – Magdalena Ridge Observatory, Socorro MPS 872652
2018 03 07.491837 11 40 27.73 +16 10 24.5 19.9 G H01 – Magdalena Ridge Observatory, Socorro MPS 872652
2018 03 07.497452 11 40 26.83 +16 10 37.6 20.2 G H01 – Magdalena Ridge Observatory, Socorro MPS 872652
2018 03 07.503754 11 40 25.83 +16 10 52.2 19.8 G H01 – Magdalena Ridge Observatory, Socorro MPS 872652
2018 03 07.50649 11 40 25.39 +16 10 59.4 20.6 G I52 – Steward Observatory, Mt. Lemmon Station MPS 872652
2018 03 07.51011 11 40 24.88 +16 11 08.0 20.6 G I52 – Steward Observatory, Mt. Lemmon Station MPS 872652
2018 03 07.51369 11 40 24.21 +16 11 16.6 20.6 G I52 – Steward Observatory, Mt. Lemmon Station MPS 872652
2018 03 07.51727 11 40 23.67 +16 11 24.5 20.6 G I52 – Steward Observatory, Mt. Lemmon Station MPS 872652
2018 03 07.52684 11 40 22.14 +16 11 47.8 20.5 R 291 – LPL/Spacewatch II MPS 872652
2018 03 07.52924 11 40 21.76 +16 11 53.5 20.7 R 291 – LPL/Spacewatch II MPS 872652
2018 03 07.53164 11 40 21.34 +16 11 58.8 20.6 R 291 – LPL/Spacewatch II MPS 872652
2018 03 16.27617 11 03 12.99 +24 26 26.0 19.1 G 703 – Catalina Sky Survey MPS 874305
2018 03 16.28146 11 03 10.84 +24 26 50.9 19.4 G 703 – Catalina Sky Survey MPS 874305
2018 03 16.28676 11 03 08.66 +24 27 15.2 19.1 G 703 – Catalina Sky Survey MPS 874305
2018 03 16.29205 11 03 06.38 +24 27 41.1 19.2 G 703 – Catalina Sky Survey MPS 874305
2018 03 19.28242 10 38 39.84 +28 54 57.1 19.2 G 703 – Catalina Sky Survey MPS 876091
2018 03 19.28820 10 38 36.26 +28 55 32.2 19.0 G 703 – Catalina Sky Survey MPS 876091
2018 03 19.29398 10 38 32.72 +28 56 06.7 18.8 G 703 – Catalina Sky Survey MPS 876091
2018 03 19.29975 10 38 29.17 +28 56 40.6 18.9 G 703 – Catalina Sky Survey MPS 876091
2018 03 21.24161 10 16 14.40 +32 26 10.5 19.2 G 703 – Catalina Sky Survey MPS 900342
2018 03 21.24737 10 16 09.72 +32 26 50.0 19.2 G 703 – Catalina Sky Survey MPS 900342
2018 03 21.25285 10 16 05.21 +32 27 27.6   703 – Catalina Sky Survey MPS 900342
2018 03 21.25825 10 16 00.84 +32 28 04.6 19.4 G 703 – Catalina Sky Survey MPS 900342
2018 03 21.81912 10 08 18.83 +33 33 21.7 19.0 R 113 – Volkssternwarte Drebach, Schoenbrunn MPS 876091
2018 03 21.82440 10 08 14.21 +33 33 59.9 19.2 R 113 – Volkssternwarte Drebach, Schoenbrunn MPS 876091
2018 03 21.82967 10 08 09.59 +33 34 36.9 18.8 R 113 – Volkssternwarte Drebach, Schoenbrunn MPS 876091